Regional Weather Roundup
Issued by NWS

Home | Current Version | Previous Version | Text Only | Print | Product List | Glossary Off
Versions: 1 2 3 4 5 6 7 8 9 10 11 12 13 14 15 16 17 18 19 20 21 22 23 24 25 26 27 28 29 30 31 32 33 34 35 36 37 38 39 40 41 42 43 44 45 46 47 48 49 50

000
ASUS45 KTFX 261319
RWRMT
MONTANA HOURLY WEATHER ROUNDUP
NATIONAL WEATHER SERVICE GREAT FALLS MT
619 AM MST FRI DEC 26 2014

NOTE: "FAIR" INDICATES FEW OR NO CLOUDS BELOW 12000 FEET WITH NO
SIGNIFICANT WEATHER AND/OR OBSTRUCTIONS TO VISIBILITY.

* THESE STATIONS ARE NOT UNDER NWS QUALITY CONTROL. THEY DO NOT
   REPORT WEATHER SUCH AS PRECIPITATION OR FOG.

MTZ001>007-043-261400-
WEST OF THE DIVIDE
CITY           SKY/WX    TMP DP  RH WIND       PRES   REMARKS
KALISPELL      LGT SNOW  25  23  92 CALM      30.06S VSB 3
MISSOULA       CLOUDY    25  23  92 CALM      30.08R
BUTTE          LGT SNOW  12   9  88 CALM      29.97R
MULLAN PASS    FOG       19  16  88 NW7       29.95R VSB 1 3/4 WCI  10
* ESSEX        N/A       22  21  96 N/A        N/A
* HAMILTON APT MOCLDY    27  19  72 S8        30.05S WCI  19
* LIBBY APT    CLEAR     25  21  85 CALM      30.13R
* LINCOLN      N/A       22  18  85 S3G9       N/A
* LOOKOUT PASS N/A       22  19  88 SE1G6      N/A
* POLSON       N/A       25  24  96 N/A        N/A
* RONAN APT    MOCLDY    28  25  89 N/A        N/A
* SEELEY LAKE  N/A       20  18  92 N/A        N/A
* THOMP F APT  CLEAR     15   4  61 N14G27     N/A
$$

MTZ008-052>055-261400-
SOUTHWEST MONTANA
CITY           SKY/WX    TMP DP  RH WIND       PRES   REMARKS
BOZEMAN        CLOUDY    10   7  88 NE6       30.01S
DILLON         CLOUDY    16  10  77 SE7       29.97S WCI   6
* W YELLOWSTON PTCLDY   -18 -26  66 N/A        N/A
* THREE FORKS  MOCLDY    14  14 100 N/A        N/A
* BOULDER HILL N/A       20  10  65 S4         N/A
* MONIDA PASS  N/A       11   6  80 NW9        N/A   WCI  -2
* RAYNOLDS PAS N/A        2   1  96 VRB1       N/A
* WHITEHALL    N/A       15  10  80 VRB4G9     N/A
* WISE RIVER   N/A       10   6  84 N/A        N/A
$$

MTZ009>010-012-014-046-048-049-054-261400-
EAST SLOPES AND CENTRAL MONTANA
CITY           SKY/WX    TMP DP  RH WIND       PRES   REMARKS
CUT BANK       FOG       19  16  88 N17       30.03R WCI   4
GREAT FALLS    CLOUDY    21  18  88 NW12      30.00R WCI   9
HELENA         CLOUDY    18  14  84 NW3       30.02R
MALMSTROM AFB  CLOUDY    21  19  92 W6        30.04R WCI  13
* CONRAD       MOCLDY    23  21  92 W14        N/A   WCI  10
* DEARBORN     N/A       17  15  92 S1         N/A
* EAST GLACIER N/A       18  14  84 NE9        N/A   WCI   7
* MONARCH      N/A       19  12  74 W11        N/A   WCI   7
* PENDROY      N/A       19  18  96 N27G34     N/A   WCI   1
* ROGERS PASS  N/A       19  15  84 SW3G9      N/A
* SWEET GRASS  N/A       18  17  96 N22G28     N/A   WCI   1
* WHITE SULPH  N/A        9   5  84 N2         N/A
$$

MTZ011-013-016-021-035-040-045-047-050-051-261400-
NORTH CENTRAL MONTANA
CITY           SKY/WX    TMP DP  RH WIND       PRES   REMARKS
HAVRE          CLOUDY    21  16  81 W13       30.02R WCI   8
LEWISTOWN      CLOUDY    16   9  74 SE5       29.97R WCI   8
* N BAR RANCH  PTCLDY    12   7  80 W6        29.95S WCI   2
* CHINOOK      CLOUDY    21  19  92 CALM      30.03R
* CHESTER      N/A       16  13  88 W3G9       N/A
* DENTON       N/A       16  10  77 S10        N/A   WCI   4
* GEYSER       N/A       20  13  74 W8         N/A   WCI  10
* JUDITH GAP   N/A       12  11  96 N/A        N/A
* LOMA         N/A       18  15  88 SW1        N/A
$$

MTZ017>020-022>027-061-062-261400-
NORTHEAST MONTANA
CITY           SKY/WX    TMP DP  RH WIND       PRES   REMARKS
GLASGOW        PTCLDY    18  12  77 E10       30.05R WCI   6
GLENDIVE       CLOUDY    18  16  92 CALM      30.09R
JORDAN         MOCLDY    21  18  88 CALM      30.03S
SIDNEY         CLOUDY    12  10  92 CALM      30.15R
WOLF POINT     CLOUDY    12   9  88 E5        30.11R WCI   4
* BEAVER HILL  N/A       16  13  88 S6         N/A   WCI   7
* CIRCLE       N/A       23  20  88 N/A        N/A
* LINDSAY DVD  N/A       21  16  81 S2         N/A
* NAVAJO       N/A        7   5  91 W1         N/A
* PLENTYWOOD A CLEAR     12  10  92 W3        30.10R
* POPLAR APT   PTCLDY     9   7  91 SE5       30.11R
* SACO         N/A       17  15  92 NE6        N/A   WCI   8
$$

MTZ028>042-056>058-261400-
SOUTHCENTRAL AND SOUTHEAST MONTANA
CITY           SKY/WX    TMP DP  RH WIND       PRES   REMARKS
BAKER          CLOUDY    19  14  81 W5        30.07R WCI  12
BILLINGS       PTCLDY     9   5  84 SW18      30.01S WCI  -9
LIVINGSTON     CLOUDY     9   3  76 CALM      29.97F
MILES CITY     CLOUDY    21  19  92 S5        30.07R WCI  14
* BIG TIMBER A PTCLDY     5   1  83 CALM      29.98S VSB 2
* FORSYTH APT  PTCLDY    21  18  88 CALM      30.06R
* LAUREL APT   PTCLDY     5  -2  72 N/A        N/A
* ROUNDUP APT  CLEAR      3  -2  79 SW6        N/A   WCI  -8
* ALZADA       N/A       18  12  77 NW3        N/A
* HYSHAM       N/A       19  14  81 W3         N/A
* LAME DEER    N/A       16  14  92 SW2        N/A
* REED POINT   N/A        2   0  91 NW1        N/A
$$

REGIONAL REPORTS...DAKOTAS
CITY           SKY/WX    TMP DP  RH WIND       PRES   REMARKS
WILLISTON      CLOUDY    12   9  88 N3        30.14R
DICKINSON      CLOUDY    18  12  77 NW3       30.07R
BEACH          CLOUDY    16  14  92 CALM      30.07S
CROSBY         CLOUDY     5   3  91 N7        30.16R WCI  -7
TIOGA          CLOUDY    10  10 100 NW8       30.14R WCI  -2
WATFORD CITY   LGT SNOW  14  10  84 NW8       30.11R WCI   3
BISMARCK       CLOUDY    14   7  73 N12       30.16R
GRAND FORKS    CLOUDY    25  18  75 N8        30.12R WCI  16
FARGO          CLOUDY    25  19  78 N12       30.10R WCI  14
BUFFALO SD     PTCLDY    19  12  74 NW12      30.00R WCI   6
RAPID CITY     CLOUDY    19  16  88 N10       30.06R WCI   8
$$

REGIONAL REPORTS...WYOMING/IDAHO/WASHINGTON
CITY           SKY/WX    TMP DP  RH WIND       PRES   REMARKS
GILLETTE       CLOUDY    18  12  77 NE3       29.99R
SHERIDAN       CLOUDY    19  14  81 SW3       30.02R
CODY           CLOUDY    16  12  84 CALM      29.96R
YELLOWSTONE LA MOCLDY    -2  -6  83 CALM      29.86R
SALMON         CLOUDY    19  12  74 CALM      30.05R
MULLAN PASS    FOG       19  16  88 NW7       29.95S VSB 1 3/4 WCI  10
SAND POINT     MOCLDY    25  25 100 CALM      30.15R
SPOKANE        FAIR      25  21  85 CALM      30.15R
$$

REGIONAL REPORTS...ALBERTA
CITY           SKY/WX    TMP DP  RH WIND       PRES   REMARKS
CALGARY        FAIR      19  12  74 W3        30.04R
LETHBRIDGE     CLOUDY    23  21  92 NW3       30.09R
MEDICINE HAT   FAIR      16  16 100 NW8       30.10R WCI   5
EDMONTON       N/A        3   0  87 S5        30.05S WCI  -7
WATERTON GATE  N/A       19  18  96 E6         N/A   WCI  11
CARDSTON       N/A       21  21 100 NW5        N/A   WCI  14
MILK RIVER     N/A       19  18  96 N15        N/A   WCI   5
$$

REGIONAL REPORTS...SASKATCHEWAN
CITY           SKY/WX    TMP DP  RH WIND       PRES   REMARKS
SWIFT CURRENT  LGT SNOW   9   5  84 E6        30.03R WCI  -1
REGINA         CLOUDY     1  -2  87 N5        30.15R WCI  -9
VAL MARIE      N/A       19  18  96 E3         N/A
ASSINIBOIA     N/A        5   1  83 CALM       N/A
CORONACH       N/A        1   0  95 CALM       N/A

$$




USA.gov is the U.S. government's official web portal to all federal, state and local government web resources and services.